Location: Obersdorf
(47.4079°N, 10.2781°E)
Time: 02:33:02
(UTC+01:00)

XW-2C - Pass Details

Date: 12 December 2021
Orbit: 503 x 523 km, 97.5° (Epoch: 16 January)

Event Time Altitude Azimuth Distance (km) Brightness Sun altitude
Rises 05:49:50 0° 21° (NNE) 2,670 ? -20.5°
Reaches altitude 10° 05:52:06 10° 31° (NNE) 1,774 ? -20.1°
Maximum altitude 05:55:35 33° 96° (E) 899 ? -19.6°
Drops below altitude 10° 05:59:03 10° 162° (SSE) 1,754 ? -19.0°
Sets 06:01:17 0° 172° (S) 2,634 ? -18.6°
